This demonstration page uses our WeatherBlox Daily Observations layout. Learn more.

Left ArrowRight Arrow

44.8408, -93.29828

Hourly Observations for October 27, 2021

Temp ( °F °C ) Dew Point ( °F °C ) Humidity (%) Winds ( mph kmh ) Pressure ( in mb ) Visibility ( mi km ) Precip ( " mm )
12:53 am 00:53 Cloudy 51 10.6 35 1.7 54 54 SE 20 31 29.88 1012 10 16 N/A
1:53 am 01:53 Cloudy 50 10 35 1.7 57 57 SE 17 28 29.91 1013 10 16 N/A
2:53 am 02:53 Cloudy 50 10 35 1.7 57 57 SE 17 28 29.92 1013 10 16 N/A
3:53 am 03:53 Cloudy 50 10 36 2.2 59 59 SE 17 28 29.89 1012 10 16 N/A
4:53 am 04:53 Cloudy 49 9.4 37 2.8 64 64 SE 17 28 29.89 1012 10 16 N/A
5:53 am 05:53 Cloudy 48 8.9 37 2.8 66 66 SE 17 28 29.87 1011 10 16 N/A
6:53 am 06:53 Cloudy 48 8.9 38 3.3 68 68 SE 18 30 29.85 1011 10 16 N/A
7:53 am 07:53 Cloudy 49 9.4 39 3.9 69 69 SE 15 24 29.85 1011 10 16 N/A
8:53 am 08:53 Cloudy 48 8.9 40 4.4 74 74 SE 22 35 29.85 1011 10 16 N/A
9:53 am 09:53 Cloudy 49 9.4 40 4.4 71 71 SE 25 41 29.85 1011 10 16 N/A
10:53 am 10:53 Cloudy 49 9.4 40 4.4 71 71 SSE 22 35 29.86 1011 10 16 N/A
11:53 am 11:53 Cloudy 50 10 40 4.4 68 68 SE 22 35 29.83 1010 10 16 N/A
12:53 pm 12:53 Cloudy 52 11.1 41 5 66 66 SE 17 28 29.80 1009 10 16 N/A
1:53 pm 13:53 Cloudy 52 11.1 40 4.4 64 64 SE 16 26 29.78 1008 10 16 N/A
2:53 pm 14:53 Cloudy 53 11.7 40 4.4 61 61 ESE 16 26 29.75 1008 10 16 N/A
3:53 pm 15:53 Cloudy with Light Rain 52 11.1 43 6.1 72 72 ESE 13 20 29.74 1007 9 14 0.00 0.00
4:53 pm 16:53 Cloudy with Light Rain 51 10.6 42 5.6 71 71 ESE 8 13 29.75 1008 10 16 0.00 0.00
5:53 pm 17:53 Cloudy 52 11.1 40 4.4 64 64 ESE 10 17 29.73 1007 10 16 0.00 0.00
6:53 pm 18:53 Cloudy 52 11.1 39 3.9 61 61 SE 6 9 29.75 1008 10 16 N/A
7:53 pm 19:53 Cloudy 53 11.7 39 3.9 59 59 ESE 7 11 29.75 1008 10 16 N/A
8:53 pm 20:53 Cloudy 52 11.1 39 3.9 61 61 SSE 3 6 29.76 1008 10 16 0.00 0.00
9:53 pm 21:53 Cloudy 53 11.7 38 3.3 57 57 ESE 7 11 29.75 1007 10 16 N/A
10:53 pm 22:53 Cloudy with Rain 49 9.4 42 5.6 77 77 S 10 17 29.77 1008 5 8 0.04 1.02
11:53 pm 23:53 Cloudy with Rain 47 8.3 44 6.7 90 90 SSE 8 13 29.78 1008 4 6 0.14 3.56

Powered by AerisWeather